RH
41 42 52 65 76 84 90 94 93 92 90 87 85 84 87 94 98 99 97 93 88 84 82 80 76 74 73 71 69 62 57 54 49 44 43 43 43 40 39 39 39 39 39 38 39 39 39 37 34 33 35 37 37 37 37 37 37 37 38 39 39 40 42 41 40 42 43 43 41 39 38 37 37 37 37 37 36 39 40 38 37 36 36 37 38
38 37 43 55 69 79 87 93 95 94 93 90 88 85 84 88 93 97 98 97 93 85 81 79 77 75 73 72 68 63 61 58 52 47 44 44 44 42 41 41 40 40 40 40 40 39 39 39 36 34 34 37 38 38 38 39 38 38 38 39 40 40 41 41 41 42 42 41 38 39 40 40 41 40 39 41 38 38 40 40 41 40 41 41 42
45 44 45 48 58 72 85 93 94 95 95 93 91 87 84 84 87 92 96 98 97 91 83 79 78 76 74 73 68 64 63 59 54 51 47 46 46 43 42 42 42 42 42 41 41 40 40 39 38 36 34 35 38 39 40 40 39 39 39 39 40 41 42 42 42 41 41 41 37 36 36 37 41 40 39 43 44 43 43 43 46 45 45 45 44
58 57 57 56 56 65 79 89 93 95 97 96 94 90 86 84 83 86 90 95 97 96 90 83 80 78 75 73 69 66 67 63 61 61 57 52 49 46 44 44 44 44 44 43 43 42 41 40 39 37 35 34 36 38 40 41 40 39 40 40 40 41 43 43 43 42 42 39 36 38 36 31 33 35 36 41 46 49 50 49 50 49 47 47 46
64 64 64 66 65 66 71 79 89 95 97 96 96 94 90 85 82 82 84 89 94 96 95 90 84 80 77 77 76 73 72 72 72 72 68 62 57 51 47 46 46 47 47 47 46 44 43 41 41 39 36 33 34 36 37 38 40 40 40 40 40 40 42 43 44 45 44 39 34 37 38 31 31 34 34 37 42 47 53 55 53 51 49 47 47
62 64 64 67 69 71 72 72 79 89 94 96 96 96 93 89 84 81 80 82 88 92 94 94 90 85 82 82 83 80 78 78 77 75 71 66 60 53 50 49 49 49 49 49 48 46 45 43 42 41 38 35 33 34 36 37 39 40 40 40 41 40 40 43 44 45 46 43 37 33 32 30 33 36 34 34 39 39 46 54 54 51 50 48 47
62 62 62 65 67 71 74 73 75 80 84 90 96 97 94 93 89 84 81 79 81 86 90 94 93 90 88 85 85 83 82 81 78 75 71 67 62 56 54 53 52 52 51 52 50 48 48 46 44 43 42 39 36 35 36 37 37 38 40 40 40 41 40 42 43 45 46 45 42 38 36 34 32 33 31 34 39 36 37 46 51 51 50 48 47
65 64 62 64 66 67 71 73 76 76 74 76 87 95 95 93 91 87 85 81 79 79 83 90 92 92 90 88 87 85 83 82 79 77 75 72 69 64 61 58 56 55 54 54 53 51 49 48 46 44 44 43 40 37 35 35 36 38 39 40 41 41 41 41 41 44 45 44 44 43 42 41 35 31 29 30 36 35 33 36 42 47 47 47 46
65 65 64 65 66 67 68 68 69 72 72 69 71 80 88 92 92 89 86 84 81 78 78 83 87 90 91 89 88 87 85 83 81 78 75 74 73 70 67 64 61 58 57 56 55 53 51 50 48 45 44 45 43 40 35 35 37 37 39 40 41 42 41 41 41 43 43 43 44 44 45 45 41 36 31 30 33 33 32 31 33 37 39 40 40
66 66 65 66 68 68 68 66 64 66 68 68 64 65 72 80 87 89 88 86 83 80 77 78 81 85 88 89 88 87 86 84 82 79 76 74 73 72 71 69 66 62 60 58 56 55 54 52 50 48 46 45 45 42 37 36 36 36 37 39 40 42 42 42 42 43 44 43 42 42 45 46 44 42 39 36 35 34 33 32 30 30 31 32 33
69 68 66 66 68 68 68 68 66 65 64 65 65 65 64 66 72 78 82 85 85 82 78 76 77 80 83 85 85 86 85 83 81 79 77 75 73 73 72 70 67 65 62 61 59 57 56 54 52 49 47 46 46 45 40 37 36 36 38 39 40 41 41 43 44 44 46 46 44 42 42 43 42 42 42 40 39 38 36 34 32 31 31 31 30
70 71 69 68 68 69 70 69 68 67 65 65 66 66 65 63 63 65 68 73 78 81 81 77 75 76 79 81 82 82 81 80 79 78 76 75 73 71 71 70 69 68 66 64 62 60 58 56 53 51 49 48 47 46 43 40 38 38 39 40 41 41 42 43 45 47 47 47 47 44 42 41 40 39 38 38 39 40 39 37 34 33 33 33 32
71 74 73 71 69 69 71 71 70 68 67 68 67 66 66 64 63 63 63 63 65 71 76 78 78 76 76 77 79 79 79 78 77 77 76 74 73 72 71 71 70 69 68 66 63 60 59 58 55 53 51 49 48 47 45 43 41 40 40 41 41 41 42 43 45 46 48 48 48 46 45 42 42 40 37 36 37 41 42 40 38 36 34 33 33
73 76 75 73 69 68 71 71 70 68 67 68 67 67 67 65 65 65 64 61 60 61 65 70 75 76 76 76 76 78 78 78 77 76 76 75 75 74 72 71 70 68 67 64 62 61 60 59 57 55 53 51 50 48 46 45 43 42 41 41 41 41 42 44 45 46 47 49 49 48 47 45 44 43 40 38 39 42 44 42 40 37 34 32 33
72 75 76 72 67 65 68 71 70 68 67 67 67 67 66 66 66 66 65 64 62 60 60 62 66 69 73 75 75 75 75 76 76 75 76 75 74 74 73 72 71 69 67 65 65 64 62 61 60 58 55 53 51 50 48 46 45 44 43 42 41 41 43 45 46 47 48 49 50 49 48 47 46 45 44 43 43 43 44 43 40 38 36 34 31
72 75 76 72 65 63 65 68 69 67 66 67 67 67 66 66 66 66 67 67 66 64 62 61 61 61 66 70 73 74 73 72 73 72 73 73 72 72 71 71 71 70 70 69 68 67 66 65 63 61 58 55 53 51 50 48 46 46 45 44 43 43 44 46 47 48 49 49 50 50 50 48 47 46 46 46 46 45 44 44 42 39 38 36 34
72 72 75 72 65 61 62 64 67 66 66 67 67 66 66 66 67 68 68 68 69 68 67 65 62 60 61 64 67 71 72 72 71 70 70 69 70 70 69 69 69 69 69 68 68 68 67 67 66 65 62 58 56 54 51 49 48 47 46 45 45 44 45 47 48 48 49 50 50 50 50 49 47 47 47 47 47 46 45 45 44 41 38 37 40
70 70 72 71 64 60 60 61 64 64 64 67 67 66 65 65 68 70 71 71 71 71 70 69 67 64 63 62 63 66 68 71 71 70 70 69 68 69 68 68 67 66 66 66 66 67 67 67 67 67 65 62 59 56 54 52 50 49 48 47 46 45 47 49 49 49 49 51 51 51 50 48 48 48 48 48 46 45 45 44 43 42 40 38 40
71 68 69 70 64 59 59 59 61 60 60 65 68 65 63 63 67 72 74 73 71 71 70 70 70 69 68 64 61 62 64 67 69 69 69 69 69 68 67 66 66 65 64 63 63 64 65 65 66 66 66 64 61 59 57 55 53 52 50 50 49 48 49 50 50 50 51 52 52 51 50 49 49 50 49 48 46 44 44 44 42 41 40 39 39
71 65 65 70 65 58 57 58 59 56 55 61 66 63 59 59 65 73 75 73 70 70 69 70 71 71 72 68 62 60 60 62 65 67 68 68 67 67 67 65 64 64 63 62 61 61 61 62 63 64 64 64 62 61 59 58 56 54 52 51 51 50 50 50 50 51 52 53 52 51 49 48 50 51 50 47 45 44 43 42 41 40 39 39 40
69 61 61 67 63 56 54 55 56 53 51 57 62 60 55 55 63 72 74 71 69 68 68 70 72 73 74 74 69 65 62 60 61 63 66 67 66 66 65 64 64 62 61 61 59 58 58 58 59 60 62 62 62 61 61 60 58 57 55 53 51 51 51 52 52 53 54 54 53 50 48 48 50 50 49 46 44 43 42 41 40 39 39 39 41
67 60 58 64 61 54 52 53 55 52 50 56 60 57 52 54 62 70 72 69 66 66 67 69 72 76 78 78 76 73 69 66 63 61 62 65 66 65 64 64 63 62 61 60 59 58 57 56 56 57 58 60 61 61 61 61 60 59 58 57 54 52 52 53 53 54 55 55 54 51 49 48 49 49 47 45 44 42 41 40 39 38 39 40 41
64 61 57 61 59 53 53 53 55 52 51 57 59 55 52 54 60 68 69 66 64 65 66 70 74 78 81 82 81 79 77 73 70 66 63 61 63 64 65 65 64 63 62 60 59 58 57 56 55 55 56 57 59 60 61 61 61 60 59 58 56 53 52 53 54 55 55 55 54 52 50 49 48 48 46 44 43 41 40 40 39 38 39 40 41
58 61 58 58 54 52 53 55 56 54 53 59 59 55 53 55 60 66 65 63 63 64 66 72 77 80 83 85 85 85 83 80 77 73 70 65 63 62 63 66 66 65 64 62 60 59 58 58 57 57 57 58 59 60 62 63 62 61 61 58 56 54 53 53 54 55 56 56 55 53 51 49 47 46 45 43 41 40 40 39 38 39 39 40 42
51 59 57 52 50 50 53 57 57 56 58 60 59 56 55 57 61 63 63 62 63 65 69 74 80 83 85 87 89 89 88 86 83 80 77 74 69 65 62 63 65 66 66 64 63 62 60 60 58 58 58 58 59 61 62 63 63 62 61 59 57 56 56 56 55 55 56 55 55 53 51 49 47 46 44 42 41 40 40 39 39 39 40 41 42
51 60 55 48 48 48 52 59 59 59 62 62 59 57 56 58 62 63 63 63 64 68 72 76 81 86 88 90 92 92 91 91 90 88 85 82 78 73 67 63 62 64 66 66 66 65 63 62 60 59 59 59 59 61 63 63 63 63 63 61 59 58 57 57 56 56 56 55 54 53 51 49 47 45 44 42 41 41 40 40 39 39 40 42 43
57 58 51 48 47 45 53 62 61 60 63 61 58 58 58 62 65 64 63 64 67 72 75 78 83 87 90 92 93 93 94 95 95 94 92 89 84 79 74 69 64 62 64 67 67 67 65 63 61 60 60 60 61 63 64 64 65 65 64 63 62 60 59 59 58 57 56 55 55 53 51 49 46 44 43 42 41 42 41 40 40 39 41 43 45
60 54 49 50 45 46 58 64 61 60 60 59 58 59 61 64 65 64 64 66 71 76 77 80 85 89 93 94 95 96 97 98 98 96 95 93 89 84 80 77 72 66 64 65 66 67 67 65 65 64 63 63 64 65 66 67 68 66 66 64 63 61 60 60 59 59 58 56 55 53 51 49 47 44 43 42 42 42 42 42 41 41 42 43 46
59 50 48 47 43 52 64 62 55 54 55 57 61 63 64 65 64 64 64 67 74 79 80 82 88 93 96 98 99 99 98 99 99 97 95 92 89 86 83 81 80 75 70 68 67 68 69 68 67 67 66 66 66 66 66 67 67 67 66 65 63 61 60 60 60 60 59 57 55 54 52 49 47 44 43 43 43 43 44 44 42 42 43 44 46
55 46 45 45 46 56 63 57 50 49 53 59 64 65 64 64 65 64 63 67 75 81 83 86 91 97 100 99 100 100 98 99 98 96 94 91 87 85 83 82 82 81 78 76 74 74 73 72 70 69 68 68 67 67 66 66 65 65 64 64 63 62 60 60 60 59 59 57 55 53 51 48 46 44 43 43 43 45 46 46 45 42 42 44 47
50 45 45 46 49 56 57 52 48 48 53 59 64 65 63 64 65 64 64 68 76 82 86 88 93 99 100 99 100 99 98 98 98 97 95 91 87 83 81 80 81 82 83 81 80 80 79 77 76 73 71 70 69 68 68 68 67 66 65 65 65 64 63 62 61 59 58 56 54 52 49 48 46 45 44 44 45 47 48 47 45 42 41 42 45
48 48 49 50 51 53 52 49 48 50 53 59 64 65 63 65 66 64 64 70 78 84 86 87 92 96 98 99 99 98 97 97 98 98 96 92 88 83 80 79 79 80 82 83 83 83 83 82 81 80 77 75 73 72 71 71 71 71 70 70 69 68 68 66 63 62 60 57 54 53 50 49 47 46 45 46 47 49 49 46 44 42 42 43 44
51 51 51 52 51 49 48 48 49 51 53 58 64 64 64 67 67 63 64 71 80 86 86 86 90 94 96 98 97 97 97 98 99 99 98 95 90 85 81 77 76 77 80 83 84 84 85 85 85 85 84 81 79 78 78 79 81 81 78 76 75 73 70 69 67 65 63 60 57 55 53 51 49 48 48 50 51 50 48 46 44 44 44 45 48
53 52 51 51 49 48 49 49 50 51 53 59 62 63 64 67 67 65 68 76 83 86 86 87 90 93 96 98 98 99 99 100 100 100 99 98 93 87 82 77 75 76 79 82 83 84 85 85 85 86 86 85 84 82 84 88 93 93 85 77 76 75 72 71 70 67 65 62 59 56 53 52 51 52 53 53 53 51 48 47 46 47 48 49 51
54 52 52 50 49 50 50 50 51 51 55 61 63 63 66 69 69 71 77 84 86 85 87 91 92 94 97 99 100 100 100 100 100 100 100 100 96 89 83 78 77 77 78 79 80 83 85 84 85 86 86 86 84 81 86 93 96 98 93 81 74 75 75 72 70 67 64 61 58 56 55 55 56 58 58 56 54 51 48 48 49 51 52 53 53
53 53 53 51 51 52 51 51 53 54 57 62 63 64 70 72 73 77 84 86 85 86 89 92 93 95 99 100 100 100 100 100 100 100 100 100 97 92 85 80 79 78 79 80 81 83 84 83 83 84 83 84 80 78 87 96 96 98 99 89 76 72 73 71 68 66 64 62 62 62 62 63 63 62 60 57 53 52 51 51 53 54 55 55 55
52 52 52 52 52 52 52 53 54 57 61 64 65 67 72 75 77 83 86 84 85 88 89 90 93 98 100 100 100 100 100 100 100 100 100 100 98 95 88 83 82 81 82 82 82 82 82 82 82 82 82 82 77 77 90 98 94 94 98 96 87 77 73 72 71 70 70 69 69 68 67 66 64 62 59 57 55 55 56 56 57 57 59 60 59
52 54 54 54 54 54 56 57 58 62 65 66 68 71 75 79 84 86 85 84 86 88 88 91 96 100 100 100 100 100 100 100 100 100 100 100 100 98 92 86 83 83 84 84 84 84 84 83 82 80 81 80 74 76 90 97 92 90 95 99 98 92 85 80 76 74 73 72 71 69 68 65 63 62 61 60 62 63 60 61 63 62 64 67 65
54 56 56 57 59 61 63 63 64 68 69 69 72 76 80 85 87 86 86 87 88 88 89 95 100 101 100 100 100 100 100 100 100 100 100 100 100 99 95 90 86 85 86 87 87 88 88 86 84 82 81 81 75 73 84 95 94 91 95 100 100 100 98 92 84 79 76 74 72 70 68 67 66 67 65 66 76 80 72 65 65 66 69 72 67
57 58 61 64 67 69 70 69 70 72 73 72 75 80 86 88 86 85 87 88 88 89 92 98 101 101 100 100 100 100 100 100 100 100 100 100 101 101 98 92 89 88 89 91 92 92 92 91 89 86 84 83 79 72 78 93 98 93 95 101 100 99 101 99 94 89 85 81 79 75 72 71 70 70 70 73 86 96 90 80 76 75 77 77 71
61 65 68 69 69 68 69 71 75 77 76 75 80 85 88 86 85 86 88 87 88 92 96 100 102 100 100 101 100 100 100 101 101 101 100 100 100 101 99 95 93 93 94 96 96 96 97 96 94 94 91 88 86 79 78 90 99 97 96 100 101 99 99 100 100 98 95 91 86 81 76 73 72 74 80 85 91 96 98 96 93 91 88 85 84
67 69 69 67 65 65 71 78 81 80 78 79 84 87 86 85 86 88 87 87 91 97 100 101 101 100 101 101 100 100 101 102 102 100 100 100 100 101 101 99 97 98 98 100 100 100 101 101 100 100 99 96 94 90 86 89 97 99 97 98 100 100 97 98 100 100 101 98 91 83 79 76 77 85 93 97 96 96 99 100 100 98 96 95 96
71 71 67 66 69 75 81 84 80 78 81 84 86 86 85 86 88 88 87 90 96 100 101 101 101 101 101 100 100 101 102 102 102 100 100 100 100 100 102 101 100 101 101 101 102 101 101 101 102 102 102 101 99 96 93 92 94 98 98 97 99 100 98 98 99 99 100 98 92 88 85 81 84 94 100 100 99 99 99 99 99 99 99 100 101
71 72 70 74 81 84 82 79 76 79 86 87 83 83 86 87 86 87 90 95 100 102 101 101 101 101 101 101 101 101 102 102 102 100 100 100 100 100 101 101 101 102 102 101 101 102 101 102 102 101 100 100 98 96 95 92 90 92 96 98 98 99 99 99 98 97 98 97 92 88 84 81 86 98 102 100 99 100 100 99 99 98 99 100 101
74 77 78 81 83 81 79 78 79 85 90 87 81 82 86 86 86 89 96 100 102 103 101 101 101 101 101 102 101 99 101 102 101 101 100 100 100 100 100 100 100 100 101 102 102 102 102 102 103 102 99 97 96 95 94 92 89 86 89 95 99 99 99 99 99 97 93 90 88 87 85 86 92 99 101 100 100 100 100 100 100 99 100 101 100
79 79 80 81 81 80 81 81 83 89 93 88 83 82 84 87 90 95 100 102 102 102 102 101 101 101 101 102 101 99 100 100 100 101 101 100 100 100 100 101 101 101 101 102 103 103 103 103 103 102 99 97 97 96 93 92 90 85 82 87 94 99 101 100 100 100 95 89 90 92 92 93 97 98 98 100 101 100 99 100 100 100 100 100 99
78 77 80 83 84 82 81 83 88 94 94 89 85 84 86 92 97 100 102 102 101 102 101 100 101 102 101 101 101 102 102 101 99 99 100 100 101 100 100 100 101 101 101 101 103 103 103 104 103 102 100 99 98 96 93 91 89 86 81 79 83 91 97 100 99 101 100 98 98 99 98 98 99 100 99 100 100 100 99 100 100 101 101 100 100
76 81 84 85 83 81 82 88 93 93 90 88 88 91 95 100 101 101 102 101 101 102 100 100 100 101 101 101 102 103 103 101 100 99 100 101 101 101 101 101 101 103 102 101 103 103 102 101 101 99 99 100 98 95 92 87 84 83 80 79 79 79 84 90 93 95 99 101 100 100 100 100 100 100 100 100 100 100 100 100 100 100 100 99 99
82 86 85 82 81 83 86 90 92 91 90 92 94 98 102 102 101 102 102 102 101 101 100 100 101 100 101 102 102 103 102 101 100 99 98 99 100 101 102 100 99 101 102 101 102 101 98 98 98 97 97 99 97 91 85 82 83 83 80 79 80 77 73 73 72 75 88 100 102 101 101 101 101 100 100 100 101 100 100 100 100 100 101 100 99
86 85 82 81 83 86 89 92 94 94 94 97 100 102 102 101 101 102 103 102 102 101 100 100 100 100 100 101 101 101 101 101 101 99 97 95 95 97 100 101 99 98 98 99 101 99 94 92 91 90 89 90 87 82 80 85 90 89 82 76 73 72 70 65 60 61 73 86 92 94 95 95 96 99 100 101 102 101 101 102 101 99 100 100 100
87 84 83 84 86 89 93 96 97 97 99 101 103 102 100 101 102 100 99 98 99 100 101 100 100 100 101 100 100 101 101 100 100 100 100 98 93 91 92 95 99 101 99 98 99 100 98 95 92 88 86 85 81 78 84 94 101 99 93 84 75 69 64 59 57 62 68 72 72 74 76 77 80 87 92 94 96 98 99 100 99 98 97 96 94
Wind_Speed
13 16 14 16 21 24 26 26 25 27 28 29 31 33 35 35 35 35 36 38 39 39 38 38 36 34 34 36 38 40 41 41 42 43 43 43 42 42 40 38 36 35 34 33 32 31 30 29 30 31 32 32 32 31 29 28 26 25 23 21 20 20 19 18 16 15 12 9 7 7 6 5 3 2 2 3 5 8 11 14 15 15 15 14 14
14 16 16 15 18 21 23 25 25 26 27 28 30 32 34 35 36 35 35 37 39 39 39 39 40 39 38 39 40 40 40 42 44 45 46 45 44 43 41 40 39 38 36 35 34 33 32 31 31 32 33 34 33 31 30 28 28 26 25 24 22 22 20 20 19 16 11 10 8 7 7 6 5 5 5 5 5 7 11 14 16 17 17 16 15
16 17 20 22 18 18 20 22 24 26 27 28 29 31 32 33 34 35 36 37 38 39 39 39 40 43 42 39 39 40 40 44 47 46 47 46 45 45 44 42 41 39 38 37 36 35 34 34 33 33 34 34 34 33 32 30 30 29 28 27 24 22 20 20 21 18 13 12 10 5 3 4 4 4 6 6 6 7 10 14 16 18 17 17 16
18 18 20 25 25 19 17 20 23 23 24 26 28 29 30 32 34 35 36 37 38 39 40 40 39 41 41 38 37 37 37 40 41 40 42 44 45 46 46 44 43 41 40 39 38 37 36 35 35 34 35 35 35 35 35 34 33 32 31 30 27 24 22 21 22 20 18 15 8 2 2 2 2 4 6 6 6 8 10 13 16 18 18 17 16
17 19 19 22 26 26 21 18 19 20 22 25 27 28 29 31 34 35 36 37 37 39 40 41 38 36 35 32 30 30 29 30 33 33 35 39 43 46 47 46 45 43 42 41 40 39 38 37 36 35 35 36 37 37 37 36 35 34 33 32 30 28 25 23 23 22 22 19 11 4 3 1 2 6 8 5 6 8 10 14 15 17 18 17 16
14 17 18 20 25 28 30 27 20 18 21 25 26 26 27 28 31 33 35 35 36 38 40 40 38 35 34 31 28 27 26 28 32 34 37 42 45 48 48 47 47 46 45 44 43 42 40 39 38 37 37 37 38 38 38 37 36 36 35 34 32 31 27 24 24 25 23 23 19 11 6 3 4 10 7 2 4 6 9 13 15 16 16 16 15
13 15 17 21 25 27 29 31 29 24 20 20 23 24 26 26 27 30 32 33 33 35 38 38 37 35 36 37 35 33 31 31 34 37 41 46 48 49 50 49 49 48 47 46 45 44 42 41 40 39 38 38 38 39 40 39 38 37 36 35 34 32 29 27 26 26 24 24 24 19 13 7 8 11 7 4 4 4 7 11 13 15 15 15 15
13 15 16 19 24 27 27 29 32 34 32 24 17 20 25 26 26 26 28 31 31 32 35 37 38 36 37 38 37 37 36 35 36 38 41 42 43 46 48 50 50 49 48 47 46 46 44 43 41 40 40 39 39 40 41 40 39 37 36 36 35 34 33 30 28 27 27 26 25 23 18 12 12 12 11 9 5 3 6 9 11 14 15 15 15
12 13 15 19 23 27 28 32 37 40 40 37 29 20 17 20 25 26 26 28 30 31 33 36 38 38 37 37 36 36 36 35 36 38 38 37 38 41 44 47 49 50 50 49 48 47 46 45 44 43 42 41 40 40 41 41 40 39 38 38 37 36 34 31 29 29 29 28 26 25 20 15 14 13 14 13 7 4 6 7 10 13 13 15 16
11 12 15 19 23 27 30 34 39 41 41 42 40 34 27 20 16 19 24 27 29 30 31 33 37 37 36 36 36 36 35 34 33 34 35 35 37 38 41 44 46 49 50 50 50 49 48 47 46 45 44 43 42 41 41 42 41 40 40 39 38 37 35 33 31 29 30 30 28 27 24 20 15 11 14 15 9 5 5 7 13 13 11 13 17
9 11 15 20 24 27 31 33 37 39 41 44 43 40 38 34 27 19 15 18 23 28 31 32 34 36 37 37 37 37 36 34 32 32 33 35 37 38 41 44 46 48 50 51 51 50 49 48 48 47 46 45 44 43 43 43 42 41 40 39 38 37 36 34 32 30 30 31 30 29 29 27 22 18 20 22 15 7 6 7 12 14 11 12 16
10 10 12 18 23 26 29 31 34 37 39 41 41 40 40 40 37 32 26 20 15 17 23 28 31 33 35 36 37 37 36 35 34 34 35 37 39 40 41 43 44 45 47 49 50 50 49 49 49 48 47 47 46 45 44 43 42 41 41 40 39 38 36 34 33 32 32 32 32 31 30 30 29 25 24 25 22 16 10 8 10 13 10 9 16
10 10 11 13 17 21 25 27 30 33 36 37 38 38 38 40 40 37 35 31 25 19 15 18 24 28 31 33 35 35 35 33 33 34 34 36 38 39 40 42 43 44 45 48 50 52 52 52 52 51 50 49 48 46 45 44 43 42 41 41 39 38 38 36 35 35 35 34 34 33 32 31 30 27 23 22 24 22 16 9 9 12 9 7 13
9 9 10 11 15 20 22 23 26 29 32 34 36 36 36 37 39 38 38 37 32 27 22 18 17 21 26 30 31 31 31 31 31 31 31 33 35 36 38 42 44 47 49 51 53 54 55 55 54 54 53 51 50 48 47 45 44 43 42 41 40 40 39 37 36 36 36 35 34 33 33 32 31 28 25 23 23 23 20 15 11 8 6 6 9
8 8 8 12 18 21 21 22 24 27 30 31 32 34 34 35 36 36 36 37 36 34 30 25 22 19 20 24 27 29 29 30 31 31 31 31 32 34 37 39 41 45 48 50 51 52 54 55 54 54 53 52 51 49 48 46 45 44 43 42 41 41 39 38 37 37 37 36 35 34 33 33 31 29 27 25 24 24 23 22 18 10 3 4 6
9 9 10 14 19 21 21 23 24 25 28 29 30 31 32 32 33 34 34 34 35 36 34 31 28 23 20 21 23 27 29 30 30 31 31 32 33 35 37 37 38 40 41 43 45 47 50 52 53 53 53 52 51 50 49 48 47 45 44 43 42 42 41 39 38 38 38 37 36 35 33 32 31 30 28 27 26 25 23 24 24 18 9 4 5
9 9 9 13 17 20 21 22 23 24 26 27 28 29 30 30 31 31 32 33 34 34 34 34 33 29 25 22 21 23 27 30 32 32 32 33 33 34 35 36 37 37 37 39 41 44 46 48 50 51 51 51 51 50 50 49 48 47 46 45 45 43 42 40 39 38 38 37 36 35 33 32 31 30 30 28 27 26 25 24 25 24 18 8 4
7 8 8 12 17 19 21 22 22 23 24 25 27 28 29 30 30 30 30 30 31 31 32 32 33 32 30 27 23 22 23 26 30 32 33 33 34 34 34 35 36 37 37 38 39 41 43 45 47 48 48 49 49 50 50 49 48 48 47 46 46 44 42 41 39 38 38 37 36 34 33 32 31 30 30 30 28 27 26 25 24 24 23 17 9
7 8 8 10 15 17 21 23 24 25 25 25 26 29 31 32 31 30 28 29 30 30 31 32 32 32 31 31 28 24 22 22 25 29 32 33 34 34 35 36 36 37 38 38 39 40 41 43 45 46 46 47 48 48 48 48 48 48 47 46 45 45 43 41 40 39 38 38 37 35 33 32 31 31 31 30 30 28 27 26 24 23 24 24 19
9 9 8 9 14 17 19 21 23 26 27 27 28 30 33 34 33 31 30 31 32 33 32 32 32 32 32 33 31 28 25 22 22 23 27 31 33 34 35 36 36 37 38 39 39 40 41 42 43 44 45 46 47 48 48 48 48 48 48 47 47 45 44 42 41 40 39 39 37 36 34 33 32 31 32 32 31 29 27 26 25 24 24 25 24
8 8 8 9 14 18 19 19 20 22 26 28 29 32 34 36 34 32 31 32 34 35 34 32 32 32 32 32 32 30 28 26 23 22 24 27 30 32 34 35 36 37 38 38 39 40 41 42 43 44 45 46 47 48 48 48 48 48 48 47 47 46 44 43 41 41 40 39 38 37 35 34 33 32 33 33 32 30 28 26 25 24 26 25 25
7 8 9 10 15 19 20 20 20 20 22 24 27 31 34 36 34 31 31 33 34 35 35 35 34 32 31 31 31 31 31 29 26 24 24 25 27 29 32 34 35 36 37 38 39 40 40 41 42 43 44 45 46 47 48 48 48 48 48 47 47 47 45 43 42 42 42 40 39 37 36 34 33 33 34 33 32 31 29 27 27 26 27 27 26
6 6 9 11 15 20 21 21 21 22 22 23 25 30 32 34 32 30 31 32 34 34 35 35 34 34 32 31 30 32 32 31 29 27 26 25 26 27 29 31 34 35 36 37 38 39 39 40 41 43 43 44 45 46 46 47 49 49 48 48 48 48 47 45 44 44 43 41 39 38 37 36 35 34 34 33 32 31 30 29 28 28 27 27 26
7 6 8 12 16 18 19 19 20 22 24 25 27 29 30 31 30 29 31 32 33 34 33 33 34 34 33 31 31 32 32 31 30 29 28 26 26 26 27 29 31 33 34 36 36 37 38 39 40 41 42 43 44 44 45 46 48 48 48 49 49 48 48 46 46 45 43 42 41 39 38 37 36 36 35 34 33 32 31 30 29 29 28 27 27
10 7 8 12 14 16 17 18 19 21 23 25 27 28 29 29 28 28 30 32 33 33 33 32 31 31 31 30 31 31 30 30 30 30 29 28 27 26 26 27 29 31 32 34 35 36 37 38 39 40 41 42 43 43 44 46 47 46 47 48 48 47 47 46 45 45 44 44 42 41 40 39 38 38 36 36 35 33 32 31 30 30 29 28 27
11 8 8 10 11 15 17 17 18 21 22 24 27 29 29 27 26 27 29 32 33 33 33 33 30 29 29 29 28 28 27 28 29 30 30 30 29 27 26 26 27 29 30 32 33 34 35 37 39 40 40 41 42 42 43 45 45 45 45 45 45 45 45 45 44 44 44 44 43 42 42 41 40 40 39 37 36 34 33 32 32 31 30 29 28
8 7 8 9 11 15 16 15 17 21 22 25 28 29 29 27 26 28 30 32 32 32 33 34 31 29 29 28 26 26 27 28 29 30 30 31 30 29 27 26 26 27 29 30 31 33 35 37 38 39 39 39 40 40 42 43 43 44 43 43 43 43 42 42 43 43 42 42 43 43 42 42 42 41 40 39 37 35 34 34 33 32 31 30 29
7 7 9 10 11 13 13 14 18 20 22 25 27 28 28 28 28 30 30 31 31 31 33 34 32 30 29 28 28 28 28 28 29 30 30 30 30 29 28 26 25 26 27 28 30 32 34 35 36 36 36 37 37 39 40 41 41 41 41 41 41 41 41 40 40 40 41 41 42 42 42 42 41 41 40 39 38 36 35 35 34 33 32 31 30
8 9 11 12 12 12 12 15 19 21 23 25 26 27 28 29 30 31 32 32 30 30 32 32 30 28 28 29 31 31 31 30 30 30 31 30 30 29 28 27 26 26 26 28 29 30 31 32 33 33 33 34 35 38 39 40 41 40 40 40 40 40 39 39 38 37 38 40 40 41 42 41 40 40 39 38 36 34 34 34 34 34 34 32 30
9 12 14 13 13 14 15 17 20 22 23 25 25 25 27 29 30 31 33 33 31 30 30 29 27 27 28 31 32 32 32 32 31 30 31 31 31 30 29 28 27 26 26 26 27 28 29 30 30 31 32 33 34 37 38 40 40 41 41 40 38 38 38 37 37 36 37 38 39 39 40 40 39 38 37 36 34 32 32 31 32 34 35 34 32
9 13 15 14 14 16 18 20 22 23 24 24 24 25 26 27 29 31 33 33 32 31 30 29 26 26 29 31 31 31 31 30 30 30 31 32 31 30 29 28 27 26 25 25 26 27 27 28 29 30 31 33 34 35 36 36 37 38 38 37 36 36 35 35 36 36 37 37 37 38 38 38 37 37 36 34 32 31 30 30 30 32 33 34 33
11 14 15 14 14 16 19 21 23 25 25 26 26 26 26 27 28 31 33 33 32 31 31 30 28 28 29 29 28 29 30 30 29 30 31 31 31 29 29 28 28 27 25 25 25 26 26 27 28 29 31 32 33 34 33 33 33 34 34 34 34 34 34 34 35 35 36 36 37 36 36 36 36 35 34 32 31 30 29 30 30 31 31 32 31
13 14 14 14 15 18 21 23 24 25 26 27 27 27 28 28 29 31 33 32 31 31 31 31 31 29 27 26 27 28 30 30 29 29 30 30 30 28 28 28 28 27 25 24 24 25 25 26 28 29 30 31 32 32 31 29 29 29 31 31 32 32 33 34 34 34 35 35 36 36 35 34 34 33 32 31 31 30 29 29 30 30 30 29 28
14 14 14 16 19 22 24 25 26 27 27 27 26 27 28 28 29 30 32 31 31 31 31 31 30 28 26 27 28 28 28 28 29 29 30 30 29 28 27 27 27 26 25 24 24 24 25 26 27 28 29 30 30 30 28 26 24 24 27 30 30 31 32 33 33 34 34 34 35 35 35 34 33 32 31 31 30 30 30 30 30 31 30 29 28
14 14 15 19 23 25 26 27 28 28 27 26 26 27 27 26 27 28 29 29 30 30 30 30 29 27 27 28 29 28 26 26 27 29 30 30 29 27 26 25 25 25 25 25 24 24 24 25 26 27 27 28 28 27 25 23 22 22 24 27 29 30 30 31 32 32 33 33 33 33 33 32 32 32 31 31 30 30 30 31 32 32 31 30 29
16 17 19 23 26 27 28 29 30 29 27 26 28 28 26 25 26 27 27 28 29 29 28 28 27 27 27 28 28 27 26 26 26 28 29 29 28 27 26 24 23 24 24 23 23 23 24 24 25 26 26 26 26 25 22 21 21 22 22 24 28 29 29 29 30 30 30 30 30 30 30 30 30 30 30 30 29 29 30 31 32 32 31 31 30
22 24 26 29 30 30 30 31 31 28 26 28 30 28 24 24 25 25 27 28 28 28 28 28 27 26 26 27 26 26 26 26 26 26 27 28 27 27 25 23 22 22 22 22 23 23 23 24 24 25 25 25 24 23 21 20 21 22 22 23 25 27 27 27 27 27 28 27 27 27 27 27 27 28 28 28 28 29 30 31 32 31 31 31 31
25 28 30 32 33 32 32 31 29 26 27 29 29 25 23 23 24 24 25 26 26 27 28 28 27 27 27 26 25 25 25 26 25 26 26 27 26 25 24 22 21 21 21 21 21 21 22 23 23 25 25 25 25 24 21 20 21 22 22 22 23 24 24 25 26 25 25 25 25 25 25 26 27 26 26 26 27 29 31 31 32 31 30 31 31
28 30 31 33 33 33 32 29 26 26 28 30 27 23 21 22 22 23 23 23 25 26 27 28 28 27 26 25 24 25 25 24 25 26 27 27 26 24 21 20 19 20 20 19 19 19 20 21 22 24 24 24 24 24 22 19 19 21 22 22 23 23 22 22 24 25 25 25 25 25 25 25 25 24 24 24 25 27 30 31 31 31 30 31 30
29 31 31 31 31 29 28 27 26 27 29 29 25 22 20 21 22 22 21 22 24 25 27 28 28 26 25 25 25 25 25 25 26 28 28 26 24 21 19 17 17 18 17 17 17 18 19 19 20 22 23 23 23 23 22 20 18 20 21 21 22 23 22 21 23 24 25 26 26 27 27 26 25 23 23 24 24 25 27 29 29 29 28 28 28
28 29 28 27 28 29 29 29 27 27 28 27 23 20 20 21 22 21 22 23 24 25 27 28 27 25 25 27 27 26 27 28 27 27 26 25 22 19 16 15 15 15 15 15 15 16 17 17 18 20 21 21 21 21 22 21 18 18 19 19 20 22 22 22 23 23 24 25 26 27 28 28 26 24 23 23 24 25 26 27 28 28 26 25 24
27 26 25 26 30 31 30 27 25 26 28 25 20 19 21 22 21 21 23 25 24 25 26 26 26 26 26 27 27 27 27 27 26 25 24 22 19 16 14 13 13 13 13 13 13 14 14 15 15 17 18 19 19 19 20 20 18 16 17 18 19 20 22 22 23 23 23 23 25 27 28 27 26 25 23 23 23 24 25 26 26 26 25 24 23
25 24 25 28 29 27 25 25 26 28 26 20 18 20 22 22 22 24 26 25 24 24 24 24 25 27 28 27 26 26 26 25 24 23 21 19 16 14 12 11 11 11 11 11 12 12 12 12 13 14 15 16 17 18 18 19 18 16 16 17 17 17 19 21 22 23 23 23 23 24 25 25 25 24 23 24 23 23 24 25 24 23 23 24 25
25 25 26 25 23 24 26 28 30 28 21 17 19 23 23 23 25 26 26 25 24 23 23 23 24 26 27 27 26 25 24 22 21 20 18 16 14 12 10 9 9 10 10 10 10 11 11 11 11 12 13 14 16 17 17 18 18 17 16 16 15 15 16 18 19 20 21 22 22 22 22 23 24 23 23 23 23 23 23 22 21 21 21 21 23
24 25 25 23 23 25 27 29 29 24 19 18 22 24 24 25 27 26 25 24 23 22 22 23 24 25 26 25 25 24 22 20 18 17 15 14 12 10 9 8 8 9 9 9 10 11 11 11 11 12 14 15 15 16 17 17 18 19 18 16 14 13 14 14 16 19 21 21 20 20 21 22 22 22 21 21 21 22 22 21 21 21 20 19 19
22 24 25 24 25 25 26 27 27 22 18 21 24 25 27 28 26 24 23 22 21 21 22 22 24 25 24 24 23 22 21 19 17 15 13 12 11 9 8 8 7 7 8 8 9 9 10 10 10 11 13 14 14 16 17 17 17 18 20 18 16 14 12 12 12 15 19 21 20 19 20 21 20 19 19 19 19 20 20 20 20 21 21 21 21
23 25 25 24 23 24 26 27 25 21 21 24 27 28 28 26 23 21 20 20 20 20 21 21 23 24 23 22 21 21 20 19 17 15 14 12 10 9 8 8 7 7 7 8 8 8 9 9 9 10 12 12 12 13 15 16 17 18 19 20 20 18 16 15 13 11 14 18 20 18 18 18 18 18 18 18 20 21 21 20 21 21 21 20 19
25 23 22 22 24 25 26 25 23 23 25 27 27 27 24 21 20 19 18 18 20 19 19 20 22 22 21 20 19 18 18 17 17 15 14 13 11 10 9 8 8 8 8 8 8 9 10 10 10 11 11 11 12 14 15 16 17 18 18 19 21 21 21 20 20 17 15 17 18 18 17 16 16 17 18 18 18 20 20 21 22 22 22 21 19
23 21 21 24 25 24 24 24 24 25 26 26 24 23 21 19 18 17 16 17 19 19 19 20 20 20 19 19 18 17 16 16 16 15 14 12 11 10 10 10 9 8 9 9 10 11 11 11 12 12 12 12 13 15 15 15 16 17 17 18 19 20 21 21 23 24 22 20 19 18 18 17 16 17 18 17 17 17 18 19 21 21 21 21 21
21 21 24 25 24 23 23 23 24 24 24 23 22 20 20 18 16 16 16 16 17 18 18 18 18 18 18 18 17 16 15 14 14 14 14 13 11 9 9 10 10 9 8 8 9 11 10 9 10 10 11 12 14 14 13 12 12 13 14 15 16 17 18 19 20 21 22 21 20 20 21 21 20 20 19 19 19 20 18 18 20 21 21 21 21
21 23 24 25 24 23 22 23 23 23 23 22 21 20 19 17 16 16 15 15 15 16 16 16 16 17 17 17 16 16 15 14 13 12 12 12 12 11 8 7 8 9 9 8 8 10 11 11 12 11 10 10 10 10 10 11 12 13 13 13 13 13 14 16 17 18 19 20 21 23 24 25 25 25 24 23 24 23 21 21 23 24 24 24 24
Wind_Direction
320 319 292 268 257 250 246 243 243 239 232 225 220 218 216 214 210 208 207 207 206 204 204 204 203 204 204 205 206 207 208 209 210 211 212 213 213 212 211 209 210 210 210 210 210 210 210 209 209 210 210 209 209 209 207 206 206 205 203 203 202 197 192 194 195 186 168 142 121 114 104 99 105 116 160 177 187 193 192 192 192 191 189 187 186
335 332 321 297 265 253 248 242 240 240 237 231 225 221 219 216 214 212 209 208 208 207 206 205 206 208 209 208 208 209 210 210 212 214 213 214 214 214 213 212 211 211 211 211 212 212 211 210 211 211 211 211 211 211 211 209 207 207 205 201 202 202 200 197 195 190 181 168 147 120 100 96 99 99 112 129 152 174 183 188 189 189 187 186 184
359 356 348 336 306 270 253 245 241 239 237 234 230 226 222 218 216 215 213 211 210 210 209 209 210 212 213 213 210 209 212 214 216 217 215 214 215 216 215 214 213 213 213 213 213 213 213 213 213 213 213 212 212 211 210 210 209 209 208 205 200 200 204 204 202 202 194 173 159 153 142 127 120 107 101 108 131 157 173 181 184 184 184 183 183
5 5 1 358 348 321 280 255 246 242 240 237 233 229 224 221 218 217 216 215 213 212 212 213 213 214 215 216 214 211 212 215 215 215 214 213 214 215 215 214 214 215 215 215 215 216 216 216 215 214 215 214 214 213 211 211 211 210 209 209 204 198 199 202 205 208 201 181 159 129 133 163 199 149 116 101 119 147 165 173 177 179 180 181 182
9 8 5 5 4 356 340 303 269 252 244 242 239 234 228 224 221 220 218 217 216 214 214 214 214 214 212 213 215 212 212 212 210 212 213 212 213 215 215 216 216 217 217 217 217 218 218 218 218 217 216 216 216 216 216 214 213 213 211 210 210 207 202 200 202 206 208 203 192 154 131 194 219 149 138 119 125 141 157 168 173 176 179 181 183
14 14 9 9 9 8 5 355 330 290 262 250 246 242 238 233 227 224 222 220 218 216 215 215 213 211 208 207 208 207 209 210 209 210 212 214 215 216 217 217 217 218 218 218 218 218 219 219 219 219 218 218 218 218 219 217 216 215 214 213 214 215 209 202 202 204 208 211 210 207 200 201 153 150 153 128 137 146 152 163 172 176 180 183 185
13 15 14 14 13 11 11 8 1 346 318 283 261 251 247 244 237 231 227 223 221 219 218 216 214 212 210 210 211 210 210 212 214 214 215 217 217 217 218 218 218 218 218 219 219 219 220 221 220 220 220 220 220 219 219 220 219 218 217 217 218 216 213 209 207 204 204 209 213 216 220 217 174 166 171 150 145 172 168 166 173 177 181 186 190
12 15 15 15 15 15 13 11 11 11 8 354 315 276 258 251 247 241 235 230 226 224 221 218 216 215 214 215 216 216 216 217 218 217 217 216 216 216 217 218 218 219 220 220 220 220 221 221 222 222 222 222 222 221 222 221 221 220 219 220 220 218 217 217 214 209 207 209 210 212 219 220 199 192 195 181 153 158 177 177 178 178 182 187 191
14 16 16 15 14 14 14 16 19 19 19 19 12 348 306 273 257 249 244 238 232 229 225 222 220 219 219 218 219 221 222 222 221 220 218 216 216 216 217 218 219 219 220 221 221 221 221 222 223 223 223 223 223 224 224 223 222 221 220 219 219 218 219 221 221 218 216 213 208 207 211 209 204 208 205 193 176 157 175 183 178 176 183 191 192
14 19 19 16 15 15 15 20 23 22 21 23 24 21 11 350 310 272 254 245 239 234 230 228 224 223 222 222 222 224 224 224 223 222 219 216 217 217 217 218 219 219 219 221 222 222 222 223 223 224 224 225 225 224 224 223 223 223 223 221 219 219 219 221 224 226 223 218 213 207 203 196 194 201 201 196 191 180 178 179 178 177 181 189 194
11 18 18 16 16 17 19 21 22 22 24 24 24 24 23 19 10 349 308 272 253 242 236 232 229 226 226 225 226 226 225 223 222 221 218 216 216 217 218 219 220 221 220 220 221 221 222 223 223 224 225 225 225 224 224 224 224 224 223 222 221 221 221 221 224 227 224 220 218 213 208 204 201 202 203 199 193 184 171 170 181 186 185 187 195
13 16 15 15 14 15 18 20 20 20 22 23 22 22 24 24 22 18 9 352 319 277 253 242 235 231 230 230 230 229 228 225 223 221 219 217 217 217 218 219 219 220 220 220 220 221 221 222 223 223 224 224 225 226 225 226 225 224 222 221 220 221 222 222 222 222 222 219 218 217 217 217 215 215 214 207 204 200 186 167 172 181 188 197 199
14 16 14 14 13 13 15 17 19 20 21 21 20 20 21 23 24 22 18 14 6 350 317 279 256 244 238 236 236 235 234 232 230 228 224 221 220 218 217 217 217 218 219 220 220 221 222 222 223 223 224 225 226 226 226 225 224 223 222 221 221 221 221 222 222 223 222 221 220 219 219 220 221 223 223 217 212 205 193 173 164 175 185 189 194
12 12 13 16 15 14 14 16 19 20 19 20 20 19 18 19 21 20 18 17 16 12 2 342 310 279 260 249 245 244 243 241 239 237 234 230 226 223 220 219 219 220 221 222 223 223 223 224 224 224 225 225 225 225 225 225 225 224 223 222 222 222 222 223 224 224 224 223 223 221 220 221 222 224 224 219 213 205 195 180 162 166 185 174 183
9 7 12 18 16 15 13 15 19 19 18 19 18 17 17 17 17 17 15 15 15 15 13 6 353 330 302 278 264 256 252 249 247 244 241 238 235 231 228 225 223 224 224 225 224 223 223 223 223 223 224 224 224 224 224 224 224 224 224 224 223 223 222 223 223 222 223 223 223 222 222 222 223 223 221 220 216 210 205 195 180 165 170 185 187
4 5 10 15 15 14 13 14 16 17 17 17 17 15 15 14 14 15 13 12 12 13 12 11 6 357 342 320 295 275 263 257 254 251 247 244 242 238 235 232 230 229 228 226 225 224 224 223 223 223 223 223 224 224 224 223 223 223 222 222 222 222 221 222 222 221 222 223 223 223 222 223 224 223 221 220 217 214 212 208 198 187 180 184 194
2 3 4 8 10 10 13 14 14 15 14 14 15 14 13 12 11 11 11 10 10 8 8 8 8 5 359 349 330 306 284 270 262 257 254 250 248 245 242 238 235 233 231 230 229 227 226 224 223 223 223 222 223 223 223 223 223 222 221 221 220 220 220 220 220 220 221 222 222 221 222 223 224 222 220 218 216 214 213 213 211 204 200 193 178
2 2 2 5 8 6 8 10 12 13 13 12 12 12 12 11 10 9 9 8 7 5 4 3 4 3 359 355 348 333 313 294 279 268 262 257 254 250 247 244 240 238 236 234 232 230 228 226 225 224 223 222 222 222 222 222 221 221 221 221 220 219 218 218 219 219 220 220 220 220 221 223 223 221 219 216 214 213 213 213 215 215 213 210 197
1 2 1 5 7 4 4 5 6 8 8 9 10 9 10 9 8 8 7 5 4 2 1 359 358 357 354 353 351 344 334 319 301 285 273 264 259 255 252 249 246 242 239 237 235 232 230 228 226 225 224 223 222 222 221 220 220 220 219 218 218 217 216 216 217 217 218 218 217 217 218 220 221 219 217 215 212 213 214 214 215 217 219 218 212
357 359 355 358 1 1 2 3 3 4 3 4 6 6 7 6 5 5 4 3 2 360 358 355 353 351 348 348 349 346 341 332 321 305 288 275 267 261 256 253 249 246 243 239 236 234 232 230 228 226 225 224 222 221 221 220 219 219 218 216 215 215 215 215 215 215 216 216 215 216 217 217 217 215 213 212 211 211 213 214 216 217 218 218 215
348 352 349 351 354 353 356 359 0 2 1 2 3 3 3 2 2 3 2 0 358 355 353 350 347 346 344 343 342 342 341 336 329 319 303 289 278 268 262 257 253 249 245 241 238 235 233 231 229 227 226 225 223 222 221 220 218 217 217 216 214 213 213 214 214 212 213 214 215 215 215 216 214 212 210 210 209 210 210 211 213 215 214 214 213
339 345 344 346 349 348 349 350 353 358 359 1 2 1 360 359 358 358 358 356 354 351 348 345 343 341 340 339 337 336 337 335 331 325 315 304 291 279 270 262 256 252 248 244 240 237 234 232 230 228 227 225 224 223 221 219 217 216 214 213 212 212 211 211 211 211 211 212 212 213 213 213 212 211 210 209 209 209 208 209 210 211 211 213 213
326 331 341 347 347 344 344 345 349 352 354 357 0 0 357 355 354 354 353 352 350 347 344 342 340 338 336 335 334 333 333 332 331 327 320 312 302 291 280 269 262 257 252 247 243 239 236 233 230 229 227 225 224 222 220 219 217 215 212 211 210 211 210 210 210 210 210 210 209 210 211 210 208 208 209 209 210 210 210 210 210 210 211 213 213
328 322 342 348 345 342 341 343 347 350 351 353 355 355 354 351 351 350 348 347 346 344 342 340 337 335 334 333 331 331 330 328 327 324 320 314 308 300 290 279 269 261 255 251 247 242 238 234 231 229 227 225 224 221 219 218 217 215 213 211 210 210 209 209 209 209 209 209 208 208 209 209 207 206 207 208 208 209 210 210 210 210 211 212 212
329 331 346 345 342 341 339 342 347 349 349 349 349 348 348 347 347 346 344 343 343 342 340 337 334 331 330 329 328 328 326 323 321 318 316 312 308 302 296 287 276 267 259 254 249 244 238 235 232 230 227 225 224 221 218 218 216 215 213 211 209 208 208 208 208 208 208 209 208 208 208 208 206 205 205 206 207 209 210 210 210 210 210 211 212
326 337 347 341 339 336 335 342 347 345 344 343 343 344 343 341 342 343 341 339 339 339 337 335 332 328 326 325 324 323 322 318 315 313 311 309 306 301 295 289 280 272 264 256 251 245 240 236 234 232 229 226 224 221 219 218 216 214 211 210 209 208 207 207 208 208 210 210 210 209 209 208 206 205 206 207 207 208 209 209 210 210 209 209 210
322 340 340 334 335 332 332 340 341 339 339 339 339 339 338 336 336 338 338 337 336 336 335 333 330 326 324 322 321 319 317 314 311 309 308 306 303 299 294 289 283 276 268 259 253 248 242 239 236 233 230 227 224 221 219 217 215 212 210 209 208 207 206 207 208 209 210 212 211 210 210 210 209 209 209 209 208 208 209 210 211 211 209 208 208
322 336 332 331 332 329 330 335 335 335 336 336 336 335 334 333 333 334 335 334 334 334 333 331 328 325 322 321 320 318 316 313 310 309 307 305 301 296 292 289 283 276 270 263 256 250 245 240 236 233 230 227 223 220 217 215 212 210 208 207 207 206 205 205 207 209 210 211 211 211 212 213 213 213 213 213 212 211 210 210 211 211 209 207 206
326 330 329 331 330 327 327 329 332 334 333 332 332 331 331 330 330 332 333 332 332 331 331 330 326 322 320 320 320 319 318 315 313 311 309 307 303 296 290 286 280 274 269 263 256 250 245 240 236 233 230 227 223 220 217 214 211 208 207 206 206 206 205 205 206 207 209 211 211 211 212 214 215 215 216 217 217 218 216 214 212 210 209 207 206
324 327 329 330 326 322 322 324 327 328 328 328 326 327 328 328 328 330 331 330 329 328 328 328 324 320 320 320 320 320 319 317 314 313 311 309 306 299 291 283 278 272 266 260 255 249 244 240 236 232 228 225 222 220 218 215 212 209 207 205 205 205 205 206 205 205 206 208 209 210 212 214 215 215 216 218 219 221 223 223 220 216 212 208 206
318 323 326 324 319 316 316 318 320 321 323 323 321 322 324 324 326 328 328 328 327 325 326 326 323 320 320 321 320 319 319 317 314 312 311 310 307 300 291 282 276 271 264 259 253 248 244 239 234 230 226 223 222 220 218 215 212 211 208 206 206 205 206 206 207 206 206 207 207 209 211 212 212 213 214 216 219 222 225 226 226 225 221 217 213
315 321 321 315 310 309 310 310 312 315 318 318 317 319 320 321 323 326 326 326 324 323 323 323 321 320 320 320 319 319 319 317 314 311 310 310 307 300 290 281 275 270 264 258 251 247 243 237 232 227 224 222 220 219 216 213 211 211 211 210 208 208 207 207 208 207 207 207 207 207 209 210 210 211 212 215 219 222 224 224 225 225 224 223 223
316 316 312 306 303 303 302 303 304 307 310 312 313 314 315 317 320 322 323 323 321 320 320 320 320 319 319 319 319 319 317 315 314 311 309 309 305 297 288 280 274 270 264 256 250 245 240 235 229 225 223 221 220 217 214 211 209 209 211 212 211 211 210 208 208 208 207 207 206 206 206 207 208 210 213 216 218 219 220 221 222 223 222 223 225
311 307 303 301 302 302 300 298 298 299 303 305 306 307 308 312 316 318 319 319 319 319 319 318 318 318 318 318 319 318 315 314 314 312 311 309 304 296 288 279 273 267 261 254 248 242 237 233 229 225 222 221 219 217 211 206 203 204 210 214 213 212 212 211 210 210 209 208 208 207 206 207 208 210 212 215 216 216 215 216 217 219 220 221 222
303 302 301 301 302 301 299 298 296 296 298 299 300 302 304 308 312 314 315 316 316 316 316 317 317 317 317 319 319 317 314 312 313 313 312 310 305 297 289 279 271 264 259 254 248 241 235 230 227 223 220 219 218 215 208 203 200 198 204 212 213 210 210 211 210 209 209 209 209 209 210 211 211 213 214 215 214 214 213 214 215 217 219 221 222
303 303 302 302 302 300 298 297 295 294 294 295 297 299 301 305 310 311 312 313 314 314 314 316 316 316 317 318 318 316 313 313 313 314 313 310 306 299 290 281 271 261 256 252 246 241 234 229 225 220 218 217 216 211 203 200 199 195 197 206 210 208 207 207 207 207 208 210 210 211 213 214 215 216 216 215 214 214 214 215 216 218 220 222 224
304 303 302 302 301 299 297 296 294 292 291 293 295 297 300 304 308 309 310 312 312 312 312 314 314 314 315 316 315 314 312 312 313 313 312 310 307 300 291 282 269 258 252 247 243 239 234 229 223 218 215 214 212 206 199 198 199 198 198 202 204 204 206 207 207 208 210 211 213 214 215 215 216 216 215 214 213 214 215 217 218 219 221 223 226
307 306 305 303 301 299 299 298 294 290 290 293 294 294 298 302 303 305 307 308 308 308 310 312 313 313 314 314 313 311 310 311 312 312 312 311 308 301 291 280 268 257 251 246 241 236 232 228 223 218 215 214 211 204 199 201 204 204 206 208 202 198 203 208 209 210 212 213 214 215 215 215 214 213 213 212 212 216 218 219 219 220 221 223 225
310 309 307 305 304 303 303 301 296 290 293 296 294 293 296 296 297 300 301 301 303 305 308 311 311 312 312 311 310 310 310 311 311 312 313 313 310 302 291 278 267 257 251 246 239 231 227 225 223 219 216 214 212 206 200 203 207 206 210 214 207 197 197 203 205 206 208 209 212 212 212 214 214 213 213 212 210 215 220 223 223 222 222 224 228
311 312 311 310 309 307 305 302 296 292 297 298 293 291 293 292 295 298 297 297 302 305 308 310 311 310 310 310 311 312 313 314 315 316 317 315 311 303 289 275 265 255 248 242 236 229 224 222 220 217 215 213 213 209 204 203 207 208 209 213 210 201 194 195 198 200 201 203 206 207 207 211 213 213 213 213 211 212 219 225 226 223 222 227 232
311 313 315 317 314 309 305 299 295 297 300 296 291 292 295 295 296 296 296 300 305 307 309 311 310 310 310 311 313 314 316 319 320 320 319 316 311 301 287 273 262 251 242 236 230 224 221 219 217 216 214 214 214 213 208 204 207 212 213 213 211 204 197 192 192 195 197 198 200 203 205 208 210 211 211 213 214 216 220 224 225 225 227 231 234
312 315 320 321 315 310 305 301 303 307 302 295 294 297 299 298 295 294 299 305 307 308 309 310 309 310 310 311 312 316 319 322 324 324 321 315 309 299 285 272 258 245 236 229 224 218 214 214 215 215 215 214 214 215 213 209 211 220 222 216 212 207 203 196 191 191 194 197 200 203 206 208 209 210 211 216 220 222 225 226 226 228 230 230 229
314 317 321 320 315 313 313 314 315 311 301 296 301 303 301 299 296 297 303 307 308 309 310 309 309 310 310 310 312 316 322 325 326 326 322 314 306 296 283 269 253 240 230 221 215 212 207 208 210 212 215 217 216 217 217 214 215 222 226 221 211 203 201 199 195 193 194 198 202 204 206 211 214 215 217 222 226 228 230 231 230 229 228 225 223
314 316 319 320 320 321 321 320 317 309 298 299 308 307 303 301 298 301 306 308 309 311 311 308 308 309 309 310 312 317 323 326 327 327 323 314 305 294 281 266 249 234 224 215 210 206 202 202 206 210 215 219 220 221 223 222 218 217 222 226 216 199 192 197 201 201 199 201 206 210 214 220 223 222 224 228 231 232 234 235 235 235 235 232 229
313 317 320 324 325 323 321 319 315 307 297 305 313 310 304 301 301 304 307 309 312 313 310 308 308 307 308 310 314 320 325 327 328 328 323 316 308 297 284 268 251 235 223 216 211 207 204 202 205 212 218 222 224 223 224 225 223 217 217 224 227 217 207 206 207 207 210 212 214 216 222 227 228 227 229 232 234 235 235 235 237 237 238 238 238
317 321 323 325 325 323 320 317 312 305 303 312 317 312 304 300 302 307 309 311 314 313 309 307 307 308 310 313 316 321 326 329 330 329 324 318 313 303 289 274 259 244 232 226 219 214 212 211 212 218 223 225 227 227 226 225 226 222 218 218 223 228 228 224 214 207 210 215 214 213 218 225 228 229 231 232 233 233 233 233 235 237 236 235 232
324 323 325 327 326 323 320 316 312 312 315 316 314 309 304 302 305 310 312 313 314 312 308 307 306 309 312 314 317 322 325 328 331 332 329 325 319 310 296 283 271 257 244 238 234 227 223 221 224 229 231 231 232 233 231 228 228 229 226 222 220 222 224 225 219 204 194 199 205 210 216 221 223 224 225 227 229 230 229 229 231 234 235 234 231
325 326 330 329 324 322 320 318 317 318 318 315 311 307 306 307 311 315 316 315 314 312 308 305 306 309 311 314 318 323 327 329 331 332 332 329 324 318 306 293 284 275 264 255 249 245 241 238 238 238 236 235 237 239 240 239 236 235 234 230 226 225 224 224 224 219 207 197 198 202 206 209 210 212 214 217 220 221 222 222 223 225 229 232 233
328 330 330 326 322 320 319 317 317 317 316 314 312 310 312 316 319 321 321 317 315 314 311 307 308 310 312 315 320 324 328 330 330 331 332 330 326 321 312 305 300 291 281 274 266 263 262 259 256 252 244 237 240 248 256 257 251 246 244 240 235 233 231 228 227 226 224 217 210 208 210 210 210 214 216 217 218 218 217 218 219 220 223 225 227
329 327 325 323 321 319 317 315 315 316 316 315 313 314 319 324 326 326 325 320 317 316 313 310 310 311 313 317 320 324 329 331 330 331 331 330 331 327 314 307 307 305 303 292 275 272 275 271 266 263 257 252 255 266 273 267 254 249 249 247 243 240 238 234 231 229 228 226 221 219 221 222 222 224 225 225 227 227 225 225 226 226 228 230 231
326 324 323 322 321 319 317 315 315 316 317 315 316 321 327 330 332 331 328 325 323 319 313 309 310 311 314 318 320 322 327 330 329 329 328 327 328 329 321 306 298 301 306 297 274 267 269 267 266 268 269 269 271 272 266 252 240 237 239 241 240 238 232 227 225 222 219 219 218 218 220 223 225 226 228 229 230 231 231 232 234 237 239 241 243